EW4787 Weather Reports


Display with metric or nautical units.
time (UTC)temp
F
wind
direction
speed
MPH
gust
MPH
rain 1hr
in
rain 24hr
in
rain mn
in
humidity
%
barometer
mb
20260507043024 0 47 0.0 0.0 0.00 0.00 0.00 1010.6
20260507041520 0 47 0.0 0.0 0.00 0.00 0.00 1010.6
20260507040016 0 47 0.0 0.0 0.00 0.00 0.00 1010.5
20260507034512 0 47 0.0 0.0 0.00 0.00 0.00 1010.5
20260507033008 0 47 0.0 0.0 0.00 0.00 0.00 1010.4
20260507031503 0 47 0.0 0.0 0.00 0.00 0.00 1010.4
20260507030104 0 47 0.0 0.0 0.00 0.00 0.00 1010.4
20260507024558 0 47 0.0 0.0 0.00 0.00 0.00 1010.3
20260507023050 0 47 0.0 0.0 0.00 0.00 0.00 1010.3
20260507021546 0 47 0.0 0.0 0.00 0.00 0.00 1010.2
20260507020048 0 47 0.0 0.0 0.00 0.00 0.00 1010.1
20260507014537 0 47 0.0 0.0 0.00 0.00 0.00 1010.1
20260507013033 0 47 0.0 0.0 0.00 0.00 0.00 1010.1
20260507011529 0 47 0.0 0.0 0.00 0.00 0.00 1010.1
20260507010028 0 47 0.0 0.0 0.00 0.00 0.00 1010.1
20260507004521 0 47 0.0 0.0 0.00 0.00 0.00 1010.1
20260507003020 0 47 0.0 0.0 0.00 0.00 0.00 1010.2
20260507001520 0 47 0.0 0.0 0.00 0.00 0.00 1010.1
20260507000011 0 47 0.0 0.0 0.00 0.00 0.00 1010.2
20260506234506 0 47 0.0 0.0 0.00 0.00 0.00 1010.1
20260506233102 0 47 0.0 0.0 0.00 0.00 0.00 1010.1
20260506231553 0 47 0.0 0.0 0.00 0.00 0.00 1010.0
20260506230048 0 47 0.0 0.0 0.00 0.00 0.00 1010.1
20260506224558 0 47 0.0 0.0 0.00 0.00 0.00 1010.0
20260506223040 0 47 0.0 0.0 0.00 0.00 0.00 1010.0
20260506221536 0 47 0.0 0.0 0.00 0.00 0.00 1009.8
20260506220036 0 47 0.0 0.0 0.00 0.00 0.00 1009.8
20260506214526 0 47 0.0 0.0 0.00 0.00 0.00 1009.7
20260506213022 0 47 0.0 0.0 0.00 0.00 0.00 1009.7
20260506211518 0 47 0.0 0.0 0.00 0.00 0.00 1009.6
20260506210020 0 47 0.0 0.0 0.00 0.00 0.00 1009.5
20260506204510 0 47 0.0 0.0 0.00 0.00 0.00 1009.5
20260506203005 0 47 0.0 0.0 0.00 0.00 0.00 1009.3
20260506201600 0 47 0.0 0.0 0.00 0.00 0.00 1009.3
20260506200055 0 47 0.0 0.0 0.00 0.00 0.00 1009.1
20260506194601 0 47 0.0 0.0 0.00 0.00 0.00 1009.0
20260506193049 0 47 0.0 1.0 0.00 0.00 0.00 1008.9
20260506191542 0 48 0.0 0.0 0.00 0.00 0.00 1008.7
20260506190039 0 48 0.0 0.0 0.00 0.00 0.00 1008.6
20260506184533 0 46 0.0 3.0 0.00 0.00 0.00 1008.5
20260506183028 0 52 0.0 3.0 0.00 0.00 0.00 1008.4
20260506181525 0 69 0.0 4.0 0.00 0.00 0.00 1008.4
20260506180025 0 355 0.0 0.0 0.00 0.00 0.00 1008.2
20260506174514 0 355 0.0 0.0 0.00 0.00 0.00 1008.0
20260506173010 0 355 0.0 3.0 0.00 0.00 0.00 1008.0
20260506171512 0 355 1.0 3.0 0.00 0.00 0.00 1008.0
20260506170007 0 18 2.0 5.0 0.00 0.00 0.00 1008.0
20260506164507 0 36 0.0 4.0 0.00 0.00 0.00 1007.9
20260506163009 0 30 1.0 10.0 0.00 0.00 0.00 1007.9
20260506161506 0 355 2.0 7.0 0.00 0.00 0.00 1007.9
20260506160006 0 80 2.0 10.0 0.00 0.00 0.00 1007.8
20260506154505 0 360 2.0 10.0 0.00 0.00 0.00 1007.7
20260506153004 0 338 1.0 9.0 0.00 0.00 0.00 1007.7
20260506151504 0 355 0.0 6.0 0.00 0.00 0.00 1007.8
20260506150002 0 341 3.0 6.0 0.00 0.00 0.00 1007.8
20260506144502 0 355 3.0 7.0 0.00 0.00 0.00 1007.9
20260506143005 0 360 2.0 8.0 0.00 0.00 0.00 1007.8
20260506141501 0 331 1.0 6.0 0.00 0.00 0.00 1007.7
20260506140124 0 335 1.0 4.0 0.00 0.00 0.00 1007.9
20260506134600 0 44 0.0 8.0 0.00 0.00 0.00 1007.8
20260506133104 0 13 0.0 9.0 0.00 0.00 0.00 1007.9
20260506131559 0 5 2.0 5.0 0.00 0.00 0.00 1007.9
20260506130054 0 34 3.0 8.0 0.00 0.00 0.00 1008.0
20260506124552 0 11 0.0 5.0 0.00 0.00 0.00 1007.9
20260506123047 0 34 0.0 6.0 0.00 0.00 0.00 1007.8
20260506121546 0 267 2.0 6.0 0.00 0.00 0.00 1007.7
20260506120048 0 327 1.0 8.0 0.00 0.00 0.00 1007.8
20260506114548 0 336 2.0 8.0 0.00 0.00 0.00 1007.8
20260506113050 0 5 2.0 6.0 0.00 0.00 0.00 1007.7
20260506111542 0 334 0.0 10.0 0.00 0.00 0.00 1007.8
20260506110038 0 331 4.0 10.0 0.00 0.00 0.00 1007.8
20260506104537 0 319 2.0 9.0 0.00 0.00 0.00 1007.8
20260506103032 0 345 3.0 12.0 0.00 0.00 0.00 1007.8
20260506101533 0 19 0.0 8.0 0.00 0.00 0.00 1007.6
20260506100028 0 60 3.0 10.0 0.00 0.00 0.00 1007.8
20260506094516 0 334 0.0 8.0 0.00 0.00 0.00 1007.8
20260506093014 0 15 1.0 13.0 0.00 0.00 0.00 1007.8
20260506091510 0 338 4.0 12.0 0.00 0.00 0.00 1007.8
20260506090004 0 355 2.0 10.0 0.00 0.00 0.00 1007.7
20260506084603 0 5 2.0 8.0 0.00 0.00 0.00 1007.6
20260506083059 0 5 3.0 9.0 0.00 0.00 0.00 1007.5
20260506081554 0 321 3.0 10.0 0.00 0.00 0.00 1007.6
20260506073039 0 323 2.0 9.0 0.00 0.00 0.00 1007.5
20260506071534 0 36 2.0 9.0 0.00 0.00 0.00 1007.5
20260506061517 0 355 3.0 10.0 0.00 0.00 0.00 1007.1
20260506044615 0 355 2.0 5.0 0.00 0.00 0.00 1006.9